Location: Gila Cliff Dwellings National Monument
(33.2240°N, 108.2417°W)
Time: 04:53:22
(UTC-06:00)

Cosmos 2322 Rocket - Visible Passes

Search period start: 25 July 2017 00:00
Search period end: 04 August 2017 00:00
Orbit: 831 x 852 km, 71.0° (Epoch: 25 July)

Date Brightness Start Highest point End Pass type
(mag) Time Alt. Az. Time Alt. Az. Time Alt. Az.
25 Jul 3.3 02:20:24 40° NNE 02:20:24 40° NNE 02:23:59 10° NNE visible
25 Jul 4.2 04:02:13 13° WNW 04:02:54 14° NW 04:05:42 10° NNW visible
26 Jul 3.6 02:05:45 35° NNE 02:05:45 35° NNE 02:08:58 10° NNE visible
26 Jul 4.2 03:47:34 14° WNW 03:47:52 14° NW 03:50:55 10° NNW visible
27 Jul 3.8 01:51:05 31° NE 01:51:05 31° NE 01:53:58 10° NNE visible
27 Jul 4.2 03:32:54 15° NW 03:32:54 15° NW 03:36:06 10° NNW visible
28 Jul 3.9 01:36:23 27° NE 01:36:23 27° NE 01:38:57 10° NNE visible
28 Jul 4.2 03:18:11 16° NW 03:18:11 16° NW 03:21:16 10° NNW visible
29 Jul 4.1 01:21:39 24° NE 01:21:39 24° NE 01:23:56 10° NNE visible
29 Jul 4.3 03:03:28 17° NW 03:03:28 17° NW 03:06:24 10° NNW visible
30 Jul 4.2 01:06:54 22° NE 01:06:54 22° NE 01:08:55 10° NNE visible
30 Jul 4.3 02:48:42 17° NW 02:48:42 17° NW 02:51:33 10° NNW visible
31 Jul 4.3 00:52:07 20° NE 00:52:07 20° NE 00:53:53 10° NNE visible
31 Jul 4.3 02:33:55 18° NW 02:33:55 18° NW 02:36:41 10° NNW visible
01 Aug 4.3 00:37:18 19° NE 00:37:18 19° NE 00:38:52 10° NNE visible
01 Aug 4.3 02:19:06 18° NW 02:19:06 18° NW 02:21:48 10° NNW visible
02 Aug 4.4 00:22:27 17° NE 00:22:27 17° NE 00:23:50 10° NNE visible
02 Aug 4.3 02:04:16 19° NW 02:04:16 19° NW 02:06:54 10° N visible
03 Aug 4.4 00:07:34 16° NE 00:07:34 16° NE 00:08:48 10° NE visible
03 Aug 4.4 01:49:23 19° NW 01:49:23 19° NW 01:52:01 10° N visible
03 Aug 4.4 23:52:40 16° NE 23:52:40 16° NE 23:53:46 10° NE visible
